This is the latest recevied weather packets stored in our database for station/object KO4APQ. If no packets are shown the sender has not sent any weather packets the latest 10 day(s).
| Time | Temp. | Humidity | Pressure | Rain* | Wind** | Luminosity | Snow |
|---|---|---|---|---|---|---|---|
| 1777484854 | 23.89° C | 64% | 1012.4 hPa | 0 mm | - | 375 W/m² | - |
| 1777484551 | 23.89° C | 65% | 1012.7 hPa | 0 mm | - | 282 W/m² | - |
| 1777484248 | 23.89° C | 66% | 1012.7 hPa | 0 mm | - | 213 W/m² | - |
| 1777483944 | 23.89° C | 66% | 1012.7 hPa | 0 mm | - | 146 W/m² | - |
| 1777483640 | 23.89° C | 65% | 1012.6 hPa | 0 mm | - | 248 W/m² | - |
| 1777483336 | 23.89° C | 65% | 1012.8 hPa | 0 mm | - | 493 W/m² | - |
| 1777483032 | 24.44° C | 65% | 1012.8 hPa | 0 mm | - | 286 W/m² | - |
| 1777482729 | 24.44° C | 67% | 1013 hPa | 0 mm | - | 447 W/m² | - |
| 1777482424 | 23.33° C | 68% | 1012.9 hPa | 0 mm | - | 462 W/m² | - |
| 1777482122 | 23.33° C | 69% | 1013.1 hPa | 0 mm | - | 297 W/m² | - |
| 1777481820 | 23.89° C | 68% | 1013.1 hPa | 0 mm | - | 315 W/m² | - |
| 1777481517 | 23.89° C | 67% | 1013.1 hPa | 0 mm | - | 539 W/m² | - |
| 1777481213 | 24.44° C | 68% | 1013.4 hPa | 0 mm | - | 612 W/m² | - |
| 1777480910 | 24.44° C | 68% | 1013.5 hPa | 0 mm | - | 1065 W/m² | - |
| 1777480606 | 23.89° C | 68% | 1013.2 hPa | 0 mm | - | 1050 W/m² | - |
| 1777480304 | 23.89° C | 70% | 1013.4 hPa | 0 mm | - | 988 W/m² | - |
| 1777479999 | 23.33° C | 69% | 1013.4 hPa | 0 mm | - | 1065 W/m² | - |
| 1777479697 | 22.78° C | 70% | 1013.5 hPa | 0 mm | - | 1110 W/m² | - |
| 1777479395 | 22.78° C | 73% | 1013.6 hPa | 0 mm | - | 687 W/m² | - |
| 1777479090 | 22.22° C | 74% | 1013.8 hPa | 0 mm | - | 314 W/m² | - |
| 1777478787 | 22.22° C | 74% | 1014.1 hPa | 0 mm | - | 219 W/m² | - |
| 1777478484 | 22.78° C | 71% | 1013.9 hPa | 0 mm | - | 360 W/m² | - |
| 1777478181 | 22.22° C | 75% | 1014 hPa | 0 mm | - | 1148 W/m² | - |
| 1777477877 | 21.67° C | 76% | 1013.9 hPa | 0 mm | - | 793 W/m² | - |
| 1777477573 | 21.67° C | 78% | 1013.9 hPa | 0 mm | - | 441 W/m² | - |
* Rain latest hour (hover to see other rain measurements)
** Current wind speed in m/s (hover to see current wind gust speed)